sat.trackr.live / text

‹ back to catalog

STARLINK-1422

NORAD 45696 · 2020-035AR

PAYLOAD ACTIVE UNKNOWN

§ Identity

Operator
Country
US
Launch date
2020-06-04
Launch site
AFETR
Launch vehicle
Mass (kg)
RCS (m²)

Purposes: comms

External: N2YO · Heavens-Above · Gunter

§ Orbital elements

Epoch: 2026-09-20T03:52:01.371072Z

Period
93.14 min
Inclination
53.1510°
Eccentricity
0.0005841
Mean motion
15.46064648 rev/d
Perigee alt
424.3 km
Apogee alt
432.2 km
Semi-major
6,806.4 km
B*
9.4424e-4
RAAN
217.0810°
Arg perigee
61.2190°
Mean anomaly
298.9404°
Rev number
34,887

§ Raw data

STARLINK-14221 45696U 20035AR  26263.16112698  .00046785  00000+0  94424-3 0  99982 45696  53.1510 217.0810 0005841  61.2190 298.9404 15.46064648348873

JSON: /api/v1/satellites/45696 · /tle

For live sub-satellite position, see the globe view (requires WebGL).

§ Visibility from observer

Set your observer location to see the next 7 days of passes ≥ 10°. The values pass through the URL so the page stays shareable.

No JS? Fill the form by hand. The geolocation button needs JavaScript.